This is the latest recevied weather packets stored in our database for station/object JH5EWP-13. If no packets are shown the sender has not sent any weather packets the latest 10 day(s).
| Time | Temp. | Humidity | Pressure | Rain* | Wind** | Luminosity | Snow |
|---|---|---|---|---|---|---|---|
| 1777857825 | 18.33° C | 46% | 1001.7 hPa | 0 mm | - | - | - |
| 1777856925 | 18.33° C | 44% | 1001.8 hPa | 0 mm | - | - | - |
| 1777856025 | 17.78° C | 47% | 1001.9 hPa | 1.27 mm | - | - | - |
| 1777855125 | 17.78° C | 50% | 1001.3 hPa | 1.27 mm | - | - | - |
| 1777854225 | 17.22° C | 60% | 1000.8 hPa | 1.27 mm | - | - | - |
| 1777853325 | 17.22° C | 60% | 1000.8 hPa | 1.27 mm | - | - | - |
| 1777852425 | 17.78° C | 55% | 1000.3 hPa | 0 mm | - | - | - |
| 1777851524 | 17.78° C | 58% | 1000.1 hPa | 0 mm | - | - | - |
| 1777850624 | 17.78° C | 60% | 999.8 hPa | 0 mm | - | - | - |
| 1777849724 | 17.78° C | 59% | 999.8 hPa | 0 mm | - | - | - |
| 1777848824 | 17.78° C | 60% | 999.4 hPa | 0 mm | - | - | - |
| 1777847926 | 17.78° C | 61% | 999.4 hPa | 0 mm | - | - | - |
| 1777847025 | 17.78° C | 62% | 999.5 hPa | 0 mm | - | - | - |
| 1777846125 | 17.78° C | 64% | 999.1 hPa | 0 mm | - | - | - |
| 1777845225 | 16.67° C | 70% | 999.2 hPa | 0 mm | - | - | - |
| 1777844325 | 16.67° C | 70% | 998.4 hPa | 0 mm | - | - | - |
| 1777843424 | 16.11° C | 70% | 998.3 hPa | 0 mm | - | - | - |
| 1777842524 | 16.11° C | 70% | 998.2 hPa | 0 mm | - | - | - |
| 1777841624 | 16.11° C | 70% | 997.9 hPa | 0 mm | - | - | - |
| 1777840724 | 16.11° C | 70% | 997.8 hPa | 0 mm | - | - | - |
| 1777839826 | 16.11° C | 68% | 997.1 hPa | 0 mm | - | - | - |
| 1777838926 | 16.11° C | 68% | 997.2 hPa | 0 mm | - | - | - |
| 1777838026 | 16.11° C | 70% | 997.3 hPa | 0 mm | - | - | - |
| 1777837126 | 16.11° C | 68% | 997.1 hPa | 0 mm | - | - | - |
| 1777836226 | 16.67° C | 68% | 996.9 hPa | 0 mm | - | - | - |
* Rain latest hour (hover to see other rain measurements)
** Current wind speed in m/s (hover to see current wind gust speed)